Regional Weather Roundup
Issued by NWS

Home | Current Version | Previous Version | Graphics & Text | Print | Product List | Glossary On
Versions: 1 2 3 4 5 6 7 8 9 10 11 12 13 14 15 16 17 18 19 20 21 22 23 24 25 26 27 28 29 30 31 32 33 34 35 36 37 38 39 40 41 42 43 44 45 46 47 48 49 50
000
ASUS45 KBOI 051310
RWRID
WEATHER ROUNDUP FOR IDAHO
NATIONAL WEATHER SERVICE BOISE ID
600 AM MST THU MAR 05 2015

NOTE: "FAIR" INDICATES FEW OR NO CLOUDS BELOW 12000 FEET
WITH NO SIGNIFICANT WEATHER AND/OR OBSTRUCTIONS TO VISIBILITY

IDZ012-014-051400-
SOUTHWEST IDAHO


CITY           SKY/WX    TMP DP  RH WIND       PRES   REMARKS
BOISE          CLEAR     28  16  60 SE5       30.35R WCI  23
CALDWELL       CLEAR     21   9  58 SE5       30.38S WCI  15
MOUNTAIN HOME  PTCLDY    18  10  70 E8        30.36R WCI   8
$$

IDZ016-017-051400-
SOUTHCENTRAL IDAHO


CITY           SKY/WX    TMP DP  RH WIND       PRES   REMARKS
JEROME         PTCLDY    22  11  62 E7        30.34S WCI  13
TWIN FALLS     PTCLDY    28  13  53 S13       30.34R WCI  17
$$

IDZ019>023-051400-
SOUTHEAST IDAHO


CITY           SKY/WX    TMP DP  RH WIND       PRES   REMARKS
IDAHO FALLS    PTCLDY    22  12  65 CALM      30.35R
POCATELLO      CLEAR     22  14  71 CALM      30.35R
REXBURG        PTCLDY    11   7  84 CALM      30.34R
$$

IDZ006-010-011-018-031-032-051400-
CENTRAL IDAHO MOUNTAINS


CITY           SKY/WX    TMP DP  RH WIND       PRES   REMARKS
MCCALL         PTCLDY    15   8  73 CALM      30.30R
HAILEY         CLEAR     21  12  68 NW10      30.31R WCI  10
STANLEY          N/A      3  -3  76 CALM      30.33R
SALMON         PTCLDY    16   9  73 CALM      30.35R
CHALLIS        PTCLDY    18   8  65 CALM      30.31R
$$

IDZ002-004-006-007-026-051400-
NORTHERN IDAHO


CITY           SKY/WX    TMP DP  RH WIND       PRES   REMARKS
LEWISTON       MOCLDY    29  19  66 N3        30.33R
LOWELL           N/A     25  19  78 NW7       30.44R WCI  17
COEUR D`ALENE  PTCLDY    21  16  79 NE5       30.28R WCI  15
MULLAN PASS    PTCLDY    23   1  38 SW7       30.17R WCI  15
$$



USA.gov is the U.S. government's official web portal to all federal, state and local government web resources and services.